Hourly Data Report for September 11, 2003

All times are specified in Local Standard Time (LST). Add 1 hour to adjust for Daylight Saving Time where and when it is observed.

TORONTO CITY
ONTARIO

43°40'00.000" N
79°24'00.000" W
112.50 m
6158355
71508
XTO

Download Data

Hourly Data (September 2003)
Hourly Data Report for September 11, 2003
TIME Temp Definition
°C
Dew Point Definition
°C
Rel Hum Definition
%
Wind Dir Definition
10's deg

Wind Spd Definition
km/h
Visibility Definition
km
Stn Press Definition
kPa
Hmdx Definition


Wind Chill Definition


Weather Definition


00:00 17.0 13.2 78 LegendMM LegendMM LegendMM 101.09     LegendNANA
01:00 16.9 13.2 79 LegendMM LegendMM LegendMM 101.09     LegendNANA
02:00 16.5 13.7 84 LegendMM LegendMM LegendMM 101.08     LegendNANA
03:00 16.9 14.2 84 LegendMM LegendMM LegendMM 101.07     LegendNANA
04:00 16.7 14.0 84 LegendMM LegendMM LegendMM 101.08     LegendNANA
05:00 17.2 13.7 80 LegendMM LegendMM LegendMM 101.10     LegendNANA
06:00 16.1 13.6 85 LegendMM LegendMM LegendMM 101.15     LegendNANA
07:00
08:00 20.3 14.9 71 LegendMM LegendMM LegendMM 101.19     LegendNANA
09:00 23.3 13.9 56 LegendMM LegendMM LegendMM 101.19 27   LegendNANA
10:00 25.5 11.3 41 LegendMM LegendMM LegendMM 101.18 27   LegendNANA
11:00 25.1 13.5 49 LegendMM LegendMM LegendMM 101.18 28   LegendNANA
12:00 26.4 14.6 48 LegendMM LegendMM LegendMM 101.14 30   LegendNANA
13:00 25.7 15.2 52 LegendMM LegendMM LegendMM 101.14 30   LegendNANA
14:00 24.7 15.5 57 LegendMM LegendMM LegendMM 101.10 29   LegendNANA
15:00 24.6 15.6 57 LegendMM LegendMM LegendMM 101.06 29   LegendNANA
16:00 24.4 14.7 55 LegendMM LegendMM LegendMM 101.03 28   LegendNANA
17:00 24.4 14.2 53 LegendMM LegendMM LegendMM 100.96 28   LegendNANA
18:00 23.8 13.3 52 LegendMM LegendMM LegendMM 100.92 27   LegendNANA
19:00 22.3 13.5 57 LegendMM LegendMM LegendMM 100.92 25   LegendNANA
20:00 21.4 15.4 69 LegendMM LegendMM LegendMM 100.95 26   LegendNANA
21:00
22:00 21.1 16.8 76 LegendMM LegendMM LegendMM 100.95 26   LegendNANA
23:00 20.8 17.6 82 LegendMM LegendMM LegendMM 100.97 27   LegendNANA

Notes on Data Quality.

Legend

  • E = Estimated
  • M = Missing
  • NA = Not Available*
  • [empty] = Indicates an unobserved value
Date modified: